Regional Weather Roundup
Issued by NWS

Home | Current Version | Previous Version | Text Only | Print | Product List | Glossary On
Versions: 1 2 3 4 5 6 7 8 9 10 11 12 13 14 15 16 17 18 19 20 21 22 23 24 25 26 27 28 29 30 31 32 33 34 35 36 37 38 39 40 41 42 43 44 45 46 47 48 49 50
000
ASUS43 KTOP 202108
RWRKS

WEATHER ROUNDUP FOR KANSAS
NATIONAL WEATHER SERVICE GOODLAND KS
400 PM CDT FRI OCT 20 2017

NOTE:  "FAIR" INDICATES FEW OR NO CLOUDS BELOW 12,000 FEET WITH NO
SIGNIFICANT WEATHER AND/OR OBSTRUCTIONS TO VISIBILITY.

KSZ001>006-013>018-027>032-041>047-202200-
NORTHWEST KANSAS

CITY           SKY/WX    TMP DP  RH WIND       PRES   REMARKS
GOODLAND       SUNNY     78  39  24 S23G31    29.56F
HAYS           MOSUNNY   77  57  50 S22G32    29.67F
HILL CITY      SUNNY     78  54  43 S30G47    29.61F
RUSSELL        SUNNY     75  59  57 S32G39    29.68F
$$

KSZ061>065-074>080-084>089-202200-
SOUTHWEST KANSAS

CITY           SKY/WX    TMP DP  RH WIND       PRES   REMARKS
DODGE CITY     MOSUNNY   77  54  44 S33G47    29.69F
ELKHART          N/A     81  45  28 SW14        N/A
GARDEN CITY    SUNNY     79  50  36 S30G41    29.64F
GREAT BEND     PTSUNNY   77  58  51 S35G44    29.69F
LIBERAL        SUNNY     79  54  41 S26G36    29.67F
PRATT          MOSUNNY   76  56  51 S25G37    29.74F
$$

KSZ066>073-081>083-090>101-202200-
SOUTHEAST KANSAS

CITY           SKY/WX    TMP DP  RH WIND       PRES   REMARKS
CHANUTE        SUNNY     74  58  57 S23G31    29.92F
COFFEYVILLE    CLOUDY    76  60  57 S17G24    29.91F
HUTCHINSON     PTSUNNY   76  59  55 S25G44    29.76F
MEDICINE LODGE   N/A     76  57  51 S23G46    29.75F
NEWTON         CLOUDY    75  58  55 S28G40    29.80F
PARSONS        CLOUDY    75  58  55 S16G25    29.92F
WICHITA INTL   MOSUNNY   75  59  57 S26G37    29.81F
WICHITA JABRA  MOSUNNY   76  59  55 S24G36    29.82S
WICHITA MCCONL CLOUDY    75  57  52 S20G37    29.82F
WINFIELD       SUNNY     77  59  53 S23G35    29.85F
$$

KSZ007>012-019>026-033>040-048>060-102>105-202200-
NORTHEAST KANSAS

CITY           SKY/WX    TMP DP  RH WIND       PRES   REMARKS
CONCORDIA      PTSUNNY   77  59  53 S29G41    29.73F
EMPORIA        MOSUNNY   76  58  53 S24G38    29.84F
LAWRENCE       CLOUDY    77  60  55 SE23G32   29.87F
MANHATTAN      MOSUNNY   78  59  51 S25G39    29.77F
MARYSVILLE     CLOUDY    75  61  60 S23G30    29.76F
OLATHE IND     MOSUNNY   74  58  57 S24G31    29.91F
OLATHE EXE     SUNNY     71  57  61 S18G31    29.92F
SALINA         CLOUDY    78  60  53 S26G43    29.74F
TOPEKA BILLARD SUNNY     79  59  50 S22G33    29.84F
TOPEKA FORBES  MOSUNNY   78  59  51 S22G30    29.84F
$$




USA.gov is the U.S. government's official web portal to all federal, state and local government web resources and services.